RH
6 6 9 11 12 18 25 26 30 38 37 38 35 36 38 38 40 55 49 40 41 51 58 59 56 53 57 58 56 52 46 49 52 53 54 52 48 48 50 49 43 42 44 45 43 37 32 35 39
6 9 10 10 14 20 26 27 34 36 37 36 34 36 38 41 44 45 42 39 42 45 48 49 41 38 40 39 39 43 47 47 47 46 46 41 36 33 34 34 33 33 33 31 29 25 24 26 29
9 10 11 12 16 24 27 29 36 37 36 39 37 38 38 41 39 37 35 32 35 35 35 31 29 30 31 34 37 39 40 38 36 34 32 29 26 27 27 26 28 25 20 18 19 21 25 28 31
11 11 13 19 21 26 29 34 34 36 38 39 37 36 32 33 31 32 29 25 25 27 30 24 24 26 27 29 29 30 33 34 33 29 27 27 27 26 25 23 21 21 21 20 21 24 28 32 32
12 15 19 23 25 24 30 34 38 37 36 37 31 28 26 32 29 28 28 24 25 24 22 24 26 28 30 31 30 30 30 27 26 22 20 20 22 18 18 18 18 16 14 14 16 22 28 31 35
15 19 24 26 27 28 30 31 30 26 27 25 27 25 27 29 27 28 24 23 23 21 21 26 26 25 24 24 25 24 21 20 16 16 17 18 15 16 18 19 15 9 9 10 11 15 19 19 21
18 22 25 24 25 25 21 20 24 23 23 24 22 25 25 29 28 25 24 23 20 23 23 27 25 22 22 20 18 13 13 14 13 15 18 16 14 15 17 17 15 11 12 13 14 14 15 13 12
17 19 20 20 18 16 14 13 14 17 19 17 19 22 22 27 25 25 24 23 24 25 30 30 26 19 15 13 11 10 10 11 13 17 19 18 18 20 22 21 18 18 18 17 17 16 16 16 15
18 19 16 15 15 14 12 12 9 10 15 14 16 23 22 23 23 26 26 26 29 32 33 29 23 18 17 16 14 11 12 15 18 21 24 24 27 26 27 26 24 24 25 26 26 26 23 20 17
16 17 15 13 13 10 9 8 8 10 11 12 14 13 17 18 21 23 28 27 28 34 34 27 24 20 20 21 23 23 23 28 27 29 27 30 30 31 31 30 29 29 32 31 31 31 31 31 32
17 16 14 12 8 7 7 7 7 9 10 11 14 16 21 23 24 27 34 31 33 36 31 29 30 24 26 28 33 35 35 34 37 35 38 41 39 43 44 45 45 44 41 42 39 38 42 38 37
15 12 11 7 7 9 11 10 11 10 11 13 17 23 27 32 34 32 32 39 37 36 34 34 34 28 30 34 38 41 43 44 46 49 44 48 48 49 49 49 50 49 49 45 48 49 42 41 41
11 11 11 11 13 13 13 14 17 15 14 15 18 22 25 32 33 34 33 38 41 37 40 41 41 32 34 36 44 44 46 48 46 49 50 46 47 46 45 44 44 44 45 46 48 47 46 42 42
12 14 15 17 18 16 16 17 17 17 17 17 17 21 26 28 29 30 33 37 45 44 50 49 48 38 37 41 42 47 47 48 49 49 48 42 42 45 44 44 44 44 48 46 47 48 46 46 44
15 17 17 18 19 20 18 19 18 18 19 19 19 19 25 27 28 29 32 39 46 49 51 52 49 42 42 44 46 47 51 51 53 52 46 44 45 46 44 47 46 47 46 46 47 45 44 44 47
16 16 19 19 20 20 20 25 20 21 21 20 21 21 23 26 31 33 38 43 47 48 49 52 47 45 45 48 50 53 55 56 59 55 51 49 49 48 47 50 48 47 46 47 47 47 46 45 44
14 16 15 18 19 20 20 23 22 20 20 20 21 21 23 26 34 40 39 39 42 44 47 51 48 49 49 50 54 55 58 62 61 59 55 53 52 51 50 49 48 48 46 44 45 45 45 45 44
16 16 16 16 17 17 21 21 19 20 20 22 23 23 24 28 37 36 36 39 40 40 46 54 49 49 52 57 57 58 62 60 61 59 57 55 55 53 52 51 50 50 51 49 50 47 46 47 46
17 18 19 19 20 22 23 21 21 22 24 24 25 23 26 31 34 37 38 36 38 42 48 55 54 52 57 61 62 66 64 64 64 64 61 59 57 56 55 55 55 52 50 49 46 45 46 45 49
18 19 20 21 22 24 23 24 23 24 24 26 29 29 30 32 35 36 38 39 42 47 53 57 56 58 63 67 67 68 69 68 67 67 67 67 66 64 57 54 50 47 44 42 41 40 40 43 47
21 21 23 24 23 24 25 27 26 25 28 29 30 31 33 35 37 39 42 43 46 51 57 61 63 65 66 68 69 70 70 71 70 69 67 66 64 59 54 48 42 39 38 37 37 39 40 40 42
24 24 26 24 24 26 25 31 30 29 30 32 34 35 37 39 41 44 48 51 55 58 61 65 66 67 66 66 68 69 69 69 68 67 68 68 61 55 48 41 39 36 37 39 38 40 40 42 40
31 29 28 27 27 28 29 29 36 32 33 35 36 38 40 42 46 51 54 58 62 63 63 64 64 65 65 66 69 71 70 69 72 76 71 61 54 46 44 44 41 38 36 36 33 32 35 35 37
30 29 30 32 34 39 35 31 38 35 37 38 40 42 45 48 50 55 58 60 59 62 64 65 67 69 71 72 73 74 74 79 74 67 60 52 49 52 50 44 40 38 35 34 32 31 30 31 35
31 30 35 43 43 42 35 33 39 37 39 42 44 48 51 54 57 57 60 64 65 66 66 68 75 77 78 85 84 84 81 73 63 54 50 51 53 49 45 37 37 36 35 37 39 42 46 44 42
35 36 41 44 43 40 35 36 42 39 42 44 47 52 57 60 61 65 67 67 67 67 69 70 75 82 84 78 72 68 64 58 57 57 56 53 49 47 39 39 41 45 46 50 55 58 59 63 63
37 40 38 44 52 48 36 39 40 43 46 48 52 55 57 59 61 61 61 62 64 64 69 73 70 67 65 64 63 61 60 57 56 53 53 54 50 46 43 46 51 53 57 61 60 66 71 77 82
36 38 42 39 54 40 31 38 43 48 53 53 55 58 59 59 60 61 65 67 69 70 65 63 63 66 65 64 64 63 60 61 59 57 52 49 49 53 55 55 63 66 66 67 71 77 83 89 91
42 43 41 40 45 47 47 37 45 53 51 52 54 57 60 61 63 65 64 64 63 63 65 66 68 69 71 68 68 67 66 58 50 49 51 53 62 61 65 68 66 69 72 83 88 94 97 96 95
44 46 44 45 50 56 58 49 48 52 55 58 60 60 61 64 66 67 68 66 68 71 72 75 75 73 70 72 72 63 54 56 53 61 67 68 67 67 62 65 70 78 84 91 95 97 96 94 91